FW4608 Weather Reports


time (UTC)temp
F
wind
direction
speed
knots
gust
knots
rain 1hr
in
rain 24hr
in
rain mn
in
humidity
%
barometer
mb
20260507193513 86 241 0.9 7.8 0.00 0.00 0.00 67 1013.4
20260507193003 86 311 0.9 7.0 0.00 0.00 0.00 66 1013.6
20260507192607 86 245 1.7 7.0 0.00 0.00 0.00 65 1013.5
20260507192100 87 252 0.9 3.5 0.00 0.00 0.00 65 1013.6
20260507192002 87 313 0.9 3.5 0.00 0.00 0.00 64 1013.6
20260507191600 88 324 0.9 3.5 0.00 0.00 0.00 63 1013.8
20260507191058 88 278 0.9 5.2 0.00 0.00 0.00 60 1013.5
20260507190700 88 282 0.9 5.2 0.00 0.00 0.00 60 1013.4
20260507185559 88 316 0.9 5.2 0.00 0.00 0.00 60 1013.5
20260507185054 88 302 0.9 3.5 0.00 0.00 0.00 60 1013.6
20260507184554 89 233 0.9 4.3 0.00 0.00 0.00 59 1013.7
20260507184054 88 269 0.9 4.3 0.00 0.00 0.00 61 1013.8
20260507183551 88 327 0.9 5.2 0.00 0.00 0.00 59 1013.8
20260507183052 88 261 1.7 5.2 0.00 0.00 0.00 59 1013.8
20260507182552 88 269 0.9 4.3 0.00 0.00 0.00 58 1013.8
20260507182048 89 241 0.9 2.6 0.00 0.00 0.00 57 1013.9
20260507181552 89 251 0.0 2.6 0.00 0.00 0.00 57 1013.7
20260507181050 89 209 0.0 6.1 0.00 0.00 0.00 56 1013.8
20260507180549 89 319 0.9 6.1 0.00 0.00 0.00 54 1014.1
20260507180049 90 248 0.9 3.5 0.00 0.00 0.00 55 1014.2
20260507175545 90 320 0.0 2.6 0.00 0.00 0.00 53 1014.1
20260507175047 91 332 0.0 4.3 0.00 0.00 0.00 52 1014.1
20260507174550 92 230 0.0 4.3 0.00 0.00 0.00 53 1014.4
20260507174044 92 207 0.9 10.4 0.00 0.00 0.00 54 1014.4
20260507173546 92 283 4.3 10.4 0.00 0.00 0.00 53 1014.5
20260507173147 94 245 1.7 4.3 0.00 0.00 0.00 49 1014.5
20260507172544 94 310 0.0 4.3 0.00 0.00 0.00 53 1014.6
20260507172042 94 212 1.7 5.2 0.00 0.00 0.00 51 1014.4
20260507171550 94 288 0.9 5.2 0.00 0.00 0.00 52 1014.5
20260507171036 94 340 0.9 4.3 0.00 0.00 0.00 57 1014.6
20260507170538 93 137 0.0 4.3 0.00 0.00 0.00 57 1014.5
20260507170034 93 259 0.9 3.5 0.00 0.00 0.00 56 1014.6
20260507165533 92 143 0.9 4.3 0.00 0.00 0.00 60 1014.5
20260507165134 92 245 0.9 4.3 0.00 0.00 0.00 59 1014.5
20260507164530 91 281 0.9 4.3 0.00 0.00 0.00 59 1014.6
20260507164029 92 219 0.9 5.2 0.00 0.00 0.00 61 1014.4
20260507163528 92 236 1.7 6.1 0.00 0.00 0.00 61 1014.5
20260507163029 92 118 1.7 6.1 0.00 0.00 0.00 60 1014.5
20260507162528 92 335 0.9 3.5 0.00 0.00 0.00 61 1014.5
20260507162025 91 250 0.9 4.3 0.00 0.00 0.00 62 1014.6
20260507161524 91 120 1.7 4.3 0.00 0.00 0.00 61 1014.6
20260507161023 91 319 0.9 3.5 0.00 0.00 0.00 61 1014.8
20260507160518 91 219 0.0 4.3 0.00 0.00 0.00 61 1014.7
20260507160013 91 231 0.0 4.3 0.00 0.00 0.00 61 1014.8
20260507155511 90 238 0.9 4.3 0.00 0.00 0.00 64 1015.0
20260507155111 90 56 0.0 4.3 0.00 0.00 0.00 64 1015.0
20260507154515 89 274 0.9 7.8 0.00 0.00 0.00 64 1015.2
20260507154007 89 255 3.5 7.8 0.00 0.00 0.00 65 1015.1
20260507153505 88 245 1.7 4.3 0.00 0.00 0.00 65 1015.0
20260507153005 87 304 0.9 4.3 0.00 0.00 0.00 66 1014.9
20260507152508 87 275 0.9 3.5 0.00 0.00 0.00 66 1014.9
20260507152005 87 219 0.9 3.5 0.00 0.00 0.00 65 1014.8
20260507151501 87 238 0.0 3.5 0.00 0.00 0.00 70 1014.7
20260507151101 87 72 0.0 5.2 0.00 0.00 0.00 71 1014.7
20260507150559 86 257 1.7 5.2 0.00 0.00 0.00 67 1014.6
20260507150058 87 238 1.7 4.3 0.00 0.00 0.00 66 1014.4
20260507145559 86 315 0.9 2.6 0.00 0.00 0.00 67 1014.4
20260507145054 86 262 0.9 3.5 0.00 0.00 0.00 70 1014.4
20260507144615 85 233 0.9 3.5 0.00 0.00 0.00 70 1014.2
20260507144056 84 121 0.0 3.5 0.00 0.00 0.00 74 1014.2
20260507143550 84 66 0.9 4.3 0.00 0.00 0.00 72 1014.3
20260507143049 83 104 1.7 4.3 0.00 0.00 0.00 72 1014.5
20260507142547 83 256 0.0 2.6 0.00 0.00 0.00 75 1014.5
20260507142044 82 287 0.9 2.6 0.00 0.00 0.00 76 1014.6
20260507141543 82 229 0.0 1.7 0.00 0.00 0.00 76 1014.7
20260507141042 81 302 0.0 4.3 0.00 0.00 0.00 76 1014.6
20260507140537 81 199 0.0 3.5 0.00 0.00 0.00 76 1014.5
20260507135534 80 333 0.9 2.6 0.00 0.00 0.00 77 1014.7
20260507135033 79 308 0.0 3.5 0.00 0.00 0.00 80 1014.6
20260507134511 79 227 0.9 5.2 0.00 0.00 0.00 79 1014.8
20260507134010 79 124 0.0 5.2 0.00 0.00 0.00 80 1014.8
20260507133506 78 299 0.9 5.2 0.00 0.00 0.00 80 1014.6
20260507133005 78 258 0.0 5.2 0.00 0.00 0.00 81 1014.6
20260507132502 77 257 0.0 4.3 0.00 0.00 0.00 82 1014.8
20260507132002 77 232 0.0 1.7 0.00 0.00 0.00 82 1014.8
20260507131515 76 150 0.0 2.6 0.00 0.00 0.00 82 1014.8
20260507131055 76 103 0.9 2.6 0.00 0.00 0.00 82 1014.8
20260507130554 76 44 0.0 3.5 0.00 0.00 0.00 83 1014.7
20260507130105 75 68 0.0 3.5 0.00 0.00 0.00 83 1014.7
20260507125552 75 316 0.9 6.1 0.00 0.00 0.00 84 1014.6
20260507125048 74 170 0.9 6.1 0.00 0.00 0.00 84 1014.5
20260507124546 74 199 1.7 5.2 0.00 0.00 0.00 84 1014.5
20260507124144 74 240 0.9 5.2 0.00 0.00 0.00 85 1014.3
20260507123541 74 276 0.0 6.1 0.00 0.00 0.00 86 1014.2
20260507123038 73 212 1.7 6.1 0.00 0.00 0.00 86 1014.2
20260507122540 73 262 0.9 4.3 0.00 0.00 0.00 87 1014.2
20260507122037 73 181 0.0 3.5 0.00 0.00 0.00 87 1014.2
20260507121551 73 265 0.0 3.5 0.00 0.00 0.00 88 1014.2
20260507121037 72 221 0.0 3.5 0.00 0.00 0.00 89 1014.2
20260507120533 72 245 0.0 3.5 0.00 0.00 0.00 89 1014.2
20260507120040 72 186 0.0 0.9 0.00 0.00 0.00 90 1014.3
20260507115530 72 212 0.0 2.6 0.00 0.00 0.00 90 1014.3
20260507115032 71 240 0.0 0.9 0.00 0.00 0.00 90 1014.3
20260507114528 71 229 0.0 1.7 0.00 0.00 0.00 91 1014.3
20260507114032 70 152 0.0 1.7 0.00 0.00 0.00 91 1014.4
20260507113533 70 34 0.0 1.7 0.00 0.00 0.00 91 1014.3
20260507113027 70 34 0.0 1.7 0.00 0.00 0.00 91 1014.4
20260507112527 69 274 0.0 0.9 0.00 0.00 0.00 91 1014.3
20260507112028 69 268 0.0 0.0 0.00 0.00 0.00 91 1014.3
20260507111538 69 123 0.0 1.7 0.00 0.00 0.00 91 1014.2
20260507111025 69 112 0.0 1.7 0.00 0.00 0.00 91 1014.3
20260507110531 68 43 0.0 0.0 0.00 0.00 0.00 91 1014.4
20260507110126 68 43 0.0 0.9 0.00 0.00 0.00 91 1014.2
20260507105623 68 43 0.0 0.9 0.00 0.00 0.00 91 1014.0
20260507105021 68 42 0.0 0.0 0.00 0.00 0.00 90 1014.2
20260507104521 68 42 0.0 0.0 0.00 0.00 0.00 90 1014.2
20260507104023 68 42 0.0 0.0 0.00 0.00 0.00 90 1014.2
20260507103519 68 42 0.0 0.0 0.00 0.00 0.00 90 1014.2
20260507103020 68 42 0.0 0.0 0.00 0.00 0.00 90 1014.4
20260507102518 69 42 0.0 0.0 0.00 0.00 0.00 90 1014.2
20260507102018 69 42 0.0 0.0 0.00 0.00 0.00 90 1014.1
20260507101519 69 42 0.0 0.9 0.00 0.00 0.00 90 1014.2
20260507101016 69 42 0.0 0.9 0.00 0.00 0.00 90 1014.2
20260507100516 69 42 0.0 0.0 0.00 0.00 0.00 89 1014.0
20260507100017 69 42 0.0 0.0 0.00 0.00 0.00 89 1014.1
20260507095518 69 42 0.0 0.0 0.00 0.00 0.00 89 1014.1
20260507095011 70 42 0.0 0.0 0.00 0.00 0.00 89 1014.0
20260507094510 70 42 0.0 0.0 0.00 0.00 0.00 89 1013.9
20260507094014 70 42 0.0 0.0 0.00 0.00 0.00 88 1013.9
20260507093517 70 42 0.0 0.0 0.00 0.00 0.00 88 1014.0
20260507093007 71 42 0.0 0.9 0.00 0.00 0.00 88 1013.9
20260507092507 71 41 0.0 0.9 0.00 0.00 0.00 88 1013.8
20260507092009 71 130 0.0 0.9 0.00 0.00 0.00 88 1013.8
20260507091503 71 300 0.0 1.7 0.00 0.00 0.00 88 1013.7
20260507091005 71 300 0.0 2.6 0.00 0.00 0.00 88 1013.6
20260507090503 71 258 0.0 2.6 0.00 0.00 0.00 88 1013.5
20260507090006 71 247 0.0 2.6 0.00 0.00 0.00 88 1013.3
20260507085503 70 5 0.0 2.6 0.00 0.00 0.00 88 1013.1
20260507085100 70 360 0.0 0.9 0.00 0.00 0.00 88 1013.0
20260507084700 70 327 0.0 1.7 0.00 0.00 0.00 88 1013.0
20260507084103 70 261 0.0 1.7 0.00 0.00 0.00 88 1013.1
20260507083554 70 311 0.0 3.5 0.00 0.00 0.00 88 1013.0
20260507083054 70 253 0.0 3.5 0.00 0.00 0.00 89 1013.0
20260507082558 69 138 0.0 0.9 0.00 0.00 0.00 89 1012.9
20260507082052 69 127 0.0 0.9 0.00 0.00 0.00 89 1012.9
20260507081550 69 174 0.0 0.0 0.00 0.00 0.00 89 1013.0
20260507081135 69 174 0.0 0.0 0.00 0.00 0.00 88 1013.0
20260507080534 69 174 0.0 0.0 0.00 0.00 0.00 88 1013.2
20260507075533 69 174 0.0 0.9 0.00 0.00 0.00 88 1013.3
20260507075036 69 108 0.0 0.9 0.00 0.00 0.00 88 1013.3
20260507074533 69 152 0.0 0.0 0.00 0.00 0.00 88 1013.4
20260507074030 69 152 0.0 0.0 0.00 0.00 0.00 88 1013.4
20260507073627 69 211 0.0 0.9 0.00 0.00 0.00 88 1013.4
20260507073026 69 216 0.0 1.7 0.00 0.00 0.00 88 1013.5
20260507072525 69 191 0.0 1.7 0.00 0.00 0.00 88 1013.6
20260507072022 69 88 0.0 0.0 0.00 0.00 0.00 87 1013.6
20260507071525 70 88 0.0 0.0 0.00 0.00 0.00 87 1013.7
20260507071017 70 88 0.0 0.0 0.00 0.00 0.00 87 1013.7
20260507070505 70 88 0.0 0.0 0.00 0.00 0.00 87 1013.7
20260507070012 70 88 0.0 0.9 0.00 0.00 0.00 87 1013.7
20260507065507 70 88 0.0 0.0 0.00 0.00 0.00 87 1013.7
20260507065004 70 88 0.0 0.9 0.00 0.00 0.00 87 1013.9
20260507064501 70 110 0.0 0.0 0.00 0.00 0.00 87 1013.9
20260507064102 70 110 0.0 0.0 0.00 0.00 0.00 86 1014.0
20260507063558 70 110 0.0 0.0 0.00 0.00 0.00 86 1014.1
20260507063501 70 110 0.0 0.0 0.00 0.00 0.00 86 1014.1
20260507063100 71 110 0.0 0.0 0.00 0.00 0.00 86 1014.1
20260507062555 71 110 0.0 0.0 0.00 0.00 0.00 86 1014.2
20260507062054 71 111 0.0 0.0 0.00 0.00 0.00 86 1014.3
20260507062001 71 111 0.0 0.9 0.00 0.00 0.00 86 1014.3
20260507061552 71 108 0.0 0.9 0.00 0.00 0.00 86 1014.5
20260507061050 71 108 0.0 0.0 0.00 0.00 0.00 85 1014.5
20260507060549 71 108 0.0 0.0 0.00 0.00 0.00 85 1014.8
20260507060056 71 108 0.0 0.0 0.00 0.00 0.00 85 1014.8
20260507055547 72 108 0.0 0.0 0.00 0.00 0.00 85 1014.9
20260507055046 72 108 0.0 0.9 0.00 0.00 0.00 85 1014.9
20260507054550 72 86 0.0 0.9 0.00 0.00 0.00 84 1014.8
20260507054518 72 86 0.0 0.0 0.00 0.00 0.00 84 1014.8
20260507054019 72 86 0.0 0.9 0.00 0.00 0.00 84 1014.9
20260507053519 72 86 0.0 0.9 0.00 0.00 0.00 84 1014.9
20260507053016 72 292 0.0 0.9 0.00 0.00 0.00 83 1015.0
20260507052515 72 147 0.0 0.0 0.00 0.00 0.00 83 1015.1
20260507052018 72 146 0.0 0.9 0.00 0.00 0.00 83 1015.1
20260507051515 73 130 0.0 0.9 0.00 0.00 0.00 83 1015.1
20260507051009 73 130 0.0 0.9 0.00 0.00 0.00 82 1015.1
20260507050508 73 338 0.0 0.9 0.00 0.00 0.00 82 1015.1
20260507050113 73 330 0.0 0.9 0.00 0.00 0.00 82 1015.1
20260507045508 73 108 0.0 0.9 0.00 0.00 0.00 82 1014.8
20260507045004 73 84 0.0 1.7 0.00 0.00 0.00 82 1014.8
20260507044515 73 85 0.0 1.7 0.00 0.00 0.00 82 1014.9
20260507044001 73 60 0.0 0.9 0.00 0.00 0.00 81 1015.0
20260507043604 73 140 0.0 0.9 0.00 0.00 0.00 81 1015.0
20260507043104 73 140 0.0 0.9 0.00 0.00 0.00 81 1015.1
20260507043002 73 208 0.0 0.9 0.00 0.00 0.00 81 1015.1
20260507042558 73 116 0.0 0.9 0.00 0.00 0.00 80 1015.1
20260507042105 73 116 0.0 0.9 0.00 0.00 0.00 80 1015.2
20260507041559 73 116 0.0 0.0 0.00 0.00 0.00 80 1015.3
20260507041057 73 116 0.0 0.0 0.00 0.00 0.00 79 1015.2
20260507041002 73 116 0.0 0.0 0.00 0.00 0.00 79 1015.3
20260507040553 73 116 0.0 0.0 0.00 0.00 0.00 79 1015.3
20260507040052 74 116 0.0 0.0 0.00 0.00 0.00 79 1015.3
20260507035553 74 116 0.0 0.0 0.00 0.00 0.00 79 1015.2
20260507035055 74 116 0.0 2.6 0.00 0.00 0.00 78 1015.3
20260507034555 74 116 0.0 2.6 0.00 0.00 0.00 78 1015.2
20260507034053 74 322 0.0 0.0 0.00 0.00 0.00 78 1015.1
20260507033550 74 322 0.0 0.0 0.00 0.00 0.00 77 1015.1
20260507033051 74 322 0.0 0.0 0.00 0.00 0.00 77 1015.0
20260507032550 75 322 0.0 0.9 0.00 0.00 0.00 77 1015.0
20260507032046 75 166 0.0 2.6 0.00 0.00 0.00 77 1015.0
20260507031044 75 120 0.0 0.9 0.00 0.00 0.00 77 1015.1
20260507030548 74 168 0.0 0.0 0.00 0.00 0.00 76 1015.0
20260507030042 75 169 0.0 0.9 0.00 0.00 0.00 76 1014.9
20260507025554 75 169 0.0 0.9 0.00 0.00 0.00 76 1014.9
20260507025044 75 274 0.0 3.5 0.00 0.00 0.00 75 1015.0
20260507024547 75 85 0.0 3.5 0.00 0.00 0.00 75 1015.1
20260507024038 75 215 0.0 1.7 0.00 0.00 0.00 75 1015.1
20260507023540 75 107 0.0 1.7 0.00 0.00 0.00 75 1015.0
20260507023036 75 136 0.0 2.6 0.00 0.00 0.00 75 1015.1
20260507022536 76 125 0.0 2.6 0.00 0.00 0.00 75 1015.0
20260507022140 76 98 0.0 1.7 0.00 0.00 0.00 74 1015.0
20260507021533 76 154 0.0 1.7 0.00 0.00 0.00 74 1015.2
20260507021032 76 139 0.0 2.6 0.00 0.00 0.00 73 1015.0
20260507020531 76 56 0.0 2.6 0.00 0.00 0.00 74 1015.0
20260507020042 76 249 0.0 2.6 0.00 0.00 0.00 74 1015.0
20260507015534 76 243 0.0 2.6 0.00 0.00 0.00 73 1014.6
20260507015028 76 271 0.0 0.9 0.00 0.00 0.00 74 1014.6
20260507014529 77 241 0.0 0.9 0.00 0.00 0.00 73 1014.8
20260507014030 77 209 0.0 0.9 0.00 0.00 0.00 73 1014.8
20260507013530 77 15 0.0 3.5 0.00 0.00 0.00 74 1014.7
20260507013025 77 112 0.0 3.5 0.00 0.00 0.00 73 1014.7
20260507012528 77 79 0.0 1.7 0.00 0.00 0.00 73 1014.8
20260507012024 77 281 0.0 3.5 0.00 0.00 0.00 73 1015.0
20260507011524 77 281 0.0 3.5 0.00 0.00 0.00 73 1015.1
20260507011025 77 131 0.0 2.6 0.00 0.00 0.00 74 1015.0
20260507010523 77 92 0.0 2.6 0.00 0.00 0.00 75 1014.9
20260507010028 77 195 0.0 2.6 0.00 0.00 0.00 74 1014.9
20260507005522 77 90 0.0 2.6 0.00 0.00 0.00 74 1015.0
20260507005020 77 49 0.0 0.9 0.00 0.00 0.00 75 1014.9
20260507004521 78 107 0.0 0.9 0.00 0.00 0.00 75 1014.7
20260507004023 78 341 0.0 0.9 0.00 0.00 0.00 74 1014.8
20260507003518 78 96 0.0 0.9 0.00 0.00 0.00 74 1014.6
20260507003026 79 95 0.0 0.9 0.00 0.00 0.00 74 1014.5
20260507002617 79 95 0.0 0.9 0.00 0.00 0.00 73 1014.5
20260507002018 79 280 0.0 2.6 0.00 0.00 0.00 72 1014.4
20260507001524 79 64 0.0 2.6 0.00 0.00 0.00 72 1014.1
20260507001015 80 58 0.0 3.5 0.00 0.00 0.00 71 1014.1
20260507000515 80 123 0.0 3.5 0.00 0.00 0.00 71 1014.0
20260507000014 80 225 0.0 1.7 0.00 0.00 0.00 71 1014.0
20260506235520 81 96 0.0 5.2 0.00 0.00 0.00 71 1014.0
20260506234512 81 148 0.0 3.5 0.00 0.00 0.00 71 1013.9
20260506234008 82 148 0.0 4.3 0.00 0.00 0.00 70 1013.9
20260506233512 82 249 0.0 4.3 0.00 0.00 0.00 70 1013.7
20260506233009 83 343 0.0 3.5 0.00 0.00 0.00 70 1013.7
20260506232509 83 110 0.9 3.5 0.00 0.00 0.00 69 1013.9
20260506232006 83 147 0.0 3.5 0.00 0.00 0.00 69 1013.8
20260506231511 84 162 0.9 5.2 0.00 0.00 0.00 68 1013.8
20260506231006 85 147 1.7 5.2 0.00 0.00 0.00 66 1013.8
20260506230505 86 7 1.7 4.3 0.00 0.00 0.00 66 1013.9
20260506230003 87 347 0.9 2.6 0.00 0.00 0.00 65 1013.8
20260506225502 87 114 0.0 2.6 0.00 0.00 0.00 66 1014.0
20260506225010 87 98 0.0 2.6 0.00 0.00 0.00 67 1013.9
20260506224502 87 80 0.0 7.0 0.00 0.00 0.00 67 1013.9
20260506224006 87 173 0.0 4.3 0.00 0.00 0.00 66 1013.9
20260506223501 87 219 0.0 3.5 0.00 0.00 0.00 66 1013.8
20260506223001 88 173 0.0 5.2 0.00 0.00 0.00 66 1013.7
20260506222559 88 103 0.9 5.2 0.00 0.00 0.00 65 1013.7
20260506222102 88 89 0.9 5.2 0.00 0.00 0.00 64 1013.7
20260506221559 89 204 1.7 5.2 0.00 0.00 0.00 63 1013.7
20260506221104 90 221 0.9 5.2 0.00 0.00 0.00 62 1013.8
20260506220557 91 118 0.9 5.2 0.00 0.00 0.00 59 1013.7
20260506220059 91 327 0.0 4.3 0.00 0.00 0.00 51 1013.7
20260506215558 92 321 0.0 3.5 0.00 0.00 0.00 50 1013.6
20260506215059 93 227 0.0 1.7 0.00 0.00 0.00 51 1013.6
20260506214609 92 299 0.0 3.5 0.00 0.00 0.00 51 1013.6
20260506214049 92 141 0.0 3.5 0.00 0.00 0.00 51 1013.6
20260506213548 93 201 0.0 2.6 0.00 0.00 0.00 50 1013.8
20260506213047 93 92 0.9 2.6 0.00 0.00 0.00 49 1013.9
20260506212544 93 240 0.0 3.5 0.00 0.00 0.00 51 1013.9
20260506212043 93 233 0.0 3.5 0.00 0.00 0.00 52 1013.7
20260506211039 93 293 0.0 1.7 0.00 0.00 0.00 47 1014.0
20260506210539 93 96 0.0 4.3 0.00 0.00 0.00 49 1014.0
20260506210041 92 224 1.7 4.3 0.00 0.00 0.00 51 1014.0
20260506205538 92 235 0.0 2.6 0.00 0.00 0.00 49 1014.1
20260506205037 93 339 0.9 3.5 0.00 0.00 0.00 51 1014.1
20260506204536 93 205 0.9 3.5 0.00 0.00 0.00 51 1014.1
20260506204042 93 335 0.0 3.5 0.00 0.00 0.00 50 1014.1
20260506203535 94 248 0.0 2.6 0.00 0.00 0.00 50 1014.1
20260506203035 95 272 0.0 1.7 0.00 0.00 0.00 49 1014.1
20260506202531 94 266 0.0 2.6 0.00 0.00 0.00 51 1014.1
20260506202029 94 308 0.0 2.6 0.00 0.00 0.00 51 1014.3
20260506201531 93 231 0.9 3.5 0.00 0.00 0.00 51 1014.3
20260506201030 93 248 1.7 3.5 0.00 0.00 0.00 50 1014.3
20260506200527 93 148 0.9 3.5 0.00 0.00 0.00 51 1014.5
20260506200027 94 288 0.9 2.6 0.00 0.00 0.00 50 1014.6
20260506195525 94 311 0.0 4.3 0.00 0.00 0.00 52 1014.6
20260506195027 94 214 1.7 4.3 0.00 0.00 0.00 50 1014.7
20260506194527 95 255 0.9 2.6 0.00 0.00 0.00 51 1014.8
20260506194044 94 155 0.0 2.6 0.00 0.00 0.00 50 1014.8